Regional Weather Roundup
Issued by NWS

Home | Current Version | Previous Version | Graphics & Text | Print | Product List | Glossary On
Versions: 1 2 3 4 5 6 7 8 9 10 11 12 13 14 15 16 17 18 19 20 21 22 23 24 25 26 27 28 29 30 31 32 33 34 35 36 37 38 39 40 41 42 43 44 45 46 47 48 49 50
000
ASUS43 KDTX 260001
RWRMI
MICHIGAN HOURLY REGIONAL WEATHER ROUNDUP
NATIONAL WEATHER SERVICE DETROIT/PONTIAC MI
800 PM EDT SUN SEP 25 2016

NOTE: "FAIR" INDICATES FEW OR NO CLOUDS BELOW 12,000 FEET WITH NO
SIGNIFICANT WEATHER AND/OR OBSTRUCTION TO VISIBILITY.

MIZ047>049-052>055-059>063-066>070-074>076-081>083-260100-
SOUTHEAST LOWER MICHIGAN

CITY           SKY/WX    TMP DP  RH WIND       PRES   REMARKS
ADRIAN         CLEAR     64  52  64 E7        30.05F
6HR MIN TEMP:  64; 6HR MAX TEMP:  75;

ALMA           CLEAR     67  57  69 S7        29.99F
ANN ARBOR      CLEAR     61  49  64 E5        30.05F
BAD AXE        CLEAR     62  51  66 SE6       30.05F
CARO           CLEAR     60  50  68 SE5       30.03F
DETROIT CITY   CLEAR     64  49  57 SE8       30.07S
6HR MIN TEMP:  64; 6HR MAX TEMP:  71;

DETROIT        MOCLDY    65  48  54 E6        30.07S
6HR MIN TEMP:  65; 6HR MAX TEMP:  73;

FLINT          CLEAR     63  49  60 SE10      30.03F
6HR MIN TEMP:  63; 6HR MAX TEMP:  72;

GROSSE ILE     CLEAR     64  51  62 E3        30.06S
6HR MIN TEMP:  64; 6HR MAX TEMP:  73;

HILLSDALE      CLOUDY    66  50  55 SE8       30.03S
HOWELL         CLEAR     63  49  59 SE8       30.04F
6HR MIN TEMP:  63; 6HR MAX TEMP:  72;


CITY           SKY/WX    TMP DP  RH WIND       PRES   REMARKS
JACKSON        CLEAR     66  47  50 SE10      30.02F
6HR MIN TEMP:  66; 6HR MAX TEMP:  74;

LAMBERTVILLE   CLEAR     66  55  66 CALM      30.06R
6HR MIN TEMP:  66; 6HR MAX TEMP:  73;

LANSING        CLEAR     68  47  46 SE10      30.01F
6HR MIN TEMP:  68; 6HR MAX TEMP:  75;

LAPEER         FAIR      62  48  60 SE6       30.06F
6HR MIN TEMP:  62; 6HR MAX TEMP:  71;

MASON          CLEAR     64  49  58 SE6       30.03S
MONROE         CLEAR     63  53  70 SE5       30.05S
6HR MIN TEMP:  63; 6HR MAX TEMP:  71;

MT. CLEMENS    MOCLDY    64  51  63 E13       30.06S
6HR MIN TEMP:  64; 6HR MAX TEMP:  69;

PONTIAC        CLOUDY    65  46  50 SE9       30.05F
6HR MIN TEMP:  65; 6HR MAX TEMP:  72;

PORT HOPE        N/A     63  51  65 S7        30.04F
6HR MIN TEMP:  63; 6HR MAX TEMP:  66;

PORT HURON     MOCLDY    61  52  72 SE6       30.09S
TRI CITIES     CLEAR     65  53  65 SE10      30.02F
6HR MIN TEMP:  65; 6HR MAX TEMP:  74;

MIDLAND        FAIR      67  52  59 SE6       30.00F
6HR MIN TEMP:  67; 6HR MAX TEMP:  74;

TROY           PTCLDY    67  42  39 SE3       30.09S
SAGINAW HB     CLEAR     64  50  59 SE8       30.02F
$$
MIZ043>046-050>051-056>058-064>065-071>073-077>080-260100-
SOUTHWEST LOWER MICHIGAN

CITY           SKY/WX    TMP DP  RH WIND       PRES   REMARKS
BATTLE CREEK   CLEAR     72  56  57 SE9       29.99F
6HR MIN TEMP:  71; 6HR MAX TEMP:  77;

BENTON HARBOR  PTCLDY    77  64  64 SE9       29.92F
6HR MIN TEMP:  77; 6HR MAX TEMP:  83;

BIG RAPIDS     MOCLDY    67  57  71 SE8       29.95F
6HR MIN TEMP:  67; 6HR MAX TEMP:  73;

COLDWATER      CLEAR     69  54  57 SE6       30.00F
6HR MIN TEMP:  69; 6HR MAX TEMP:  76;

FREMONT        FAIR      69  57  65 SE7       29.93S
HOLLAND        CLEAR     71  61  70 SE9       29.94S
6HR MIN TEMP:  71; 6HR MAX TEMP:  78;

GRAND RAPIDS   PTCLDY    68  55  63 SE8       29.97F
6HR MIN TEMP:  67; 6HR MAX TEMP:  75;

IONIA          FAIR      64  49  57 SE9       29.98F
6HR MIN TEMP:  64; 6HR MAX TEMP:  74;

KALAMAZOO      PTCLDY    73  59  61 SE6       29.97S
6HR MIN TEMP:  73; 6HR MAX TEMP:  79;

LUDINGTON      CLOUDY    68  61  78 SE10G17   29.89R
6HR MIN TEMP:  68; 6HR MAX TEMP:  75;

MARSHALL       CLEAR     69  52  55 SE6       30.00S
6HR MIN TEMP:  69; 6HR MAX TEMP:  76;

MUSKEGON       MOCLDY    72  59  63 SE12      29.92S
6HR MIN TEMP:  72; 6HR MAX TEMP:  78;

SOUTH HAVEN    CLEAR     75  66  73 SE7       29.93S
$$
MIZ016>042-260100-
NORTHERN LOWER MICHIGAN

CITY           SKY/WX    TMP DP  RH WIND       PRES   REMARKS
ALPENA         PTCLDY    63  54  72 SE10      30.03R
6HR MIN TEMP:  63; 6HR MAX TEMP:  71;

BEAVER ISLAND  LGT RAIN  68  56  67 SE12G18   29.89F
6HR MIN TEMP:  67; 6HR MAX TEMP:  70;

BELLAIRE       MOCLDY    69  54  58 S7        29.92F
6HR MIN TEMP:  69; 6HR MAX TEMP:  75;

CADILLAC       PTCLDY    65  54  65 SE9G16    29.95F
CHARLEVOIX     CLOUDY    68  54  59 SE12G17   29.93F
FRANKFORT      LGT RAIN  68  60  74 SE14      29.87F
GAYLORD        PTCLDY    65  52  62 SE12      29.97F
6HR MIN TEMP:  65; 6HR MAX TEMP:  72;

GRAYLING       PTCLDY    64  54  71 E7        29.99F
HARBOR SPRINGS CLOUDY    67  53  61 E5        29.93S
HOUGHTON LAKE  CLOUDY    62  54  74 SE8       29.99F
6HR MIN TEMP:  62; 6HR MAX TEMP:  70;

MANISTEE       CLOUDY    70  59  68 SE13G20   29.88F
OSCODA         PTCLDY    65  53  66 SE9G18    30.02F
6HR MIN TEMP:  65; 6HR MAX TEMP:  69;

PELLSTON       PTCLDY    67  51  56 SE13      29.94F
6HR MIN TEMP:  67; 6HR MAX TEMP:  72;

ROGERS CITY    CLOUDY    64  55  72 SE13G18   30.01S
TRAVERSE CITY  CLOUDY    71  54  54 SE12G25   29.88F
6HR MIN TEMP:  71; 6HR MAX TEMP:  75;

$$
MIZ007>008-015-260100-
EASTERN UPPER MICHIGAN

CITY           SKY/WX    TMP DP  RH WIND       PRES   REMARKS
KINROSS        CLOUDY    62  54  74 SE18      29.96F
6HR MIN TEMP:  62; 6HR MAX TEMP:  65;

MACKINAC ISLAN CLOUDY    64  55  73 E12G18    29.93F
NEWBERRY       CLOUDY    60  54  81 SE13      29.90F
6HR MIN TEMP:  59; 6HR MAX TEMP:  67; 6HR PCP:  0.01;

S. S. MARIE    LGT RAIN  62  55  77 SE10G20   29.97F
6HR MIN TEMP:  62; 6HR MAX TEMP:  67; 6HR PCP: TRACE;

MUNISING         N/A     61  59  93 S8G16     29.84R
6HR MIN TEMP:  61; 6HR MAX TEMP:  71; 6HR PCP:  0.14;

$$
MIZ004>006-011>014-085-260100-
CENTRAL UPPER MICHIGAN

CITY           SKY/WX    TMP DP  RH WIND       PRES   REMARKS
MANISTIQUE     LGT RAIN  64  62  92 E12G17    29.86F
6HR MIN TEMP:  62; 6HR MAX TEMP:  66; 6HR PCP:  0.10;

ESCANABA       CLOUDY    65  64  97 SE6       29.85S
6HR MIN TEMP:  65; 6HR MAX TEMP:  66; 6HR PCP:  0.40;

MENOMINEE        N/A    N/A N/A N/A MISG        N/A
SAWYER-GWINN   CLOUDY    61  59  94 S14G21    29.84F
$$
MIZ001>003-009>011-084-260100-
WESTERN UPPER MICHIGAN

CITY           SKY/WX    TMP DP  RH WIND       PRES   REMARKS
IRON MOUNTAIN  CLOUDY    65  62  90 SE7       29.81F
6HR MIN TEMP:  63; 6HR MAX TEMP:  65; 6HR PCP:  0.60;

HOUGHTON       CLOUDY    64  61  90 S5        29.77S
6HR MIN TEMP:  63; 6HR MAX TEMP:  65; 6HR PCP:  0.09;

COPPER HARBOR    N/A     64  62  93 SW9G23    29.75F
6HR MIN TEMP:  64; 6HR MAX TEMP:  64; 6HR PCP:  0.14;

IRONWOOD       CLOUDY    62  51  67 SW12      29.82R
6HR MIN TEMP:  62; 6HR MAX TEMP:  71; 6HR PCP: TRACE;

$$

ABBREVIATIONS USED IN REMARKS
   TC - TEMPERATURE IN CELSIUS
  WCI - WIND CHILL INDEX
   HX - HEAT INDEX
  VSB - VISIBILITY




USA.gov is the U.S. government's official web portal to all federal, state and local government web resources and services.